Location: ?????????
(44.2517°N, 135.2292°E)
Time: 15:40:52
(UTC+00:00)

ARIANE 6 FM1 Upper Stage - Pass Details

Date: 21 January 2026
Orbit: 522 x 609 km, 62.0° (Epoch: 11 February)

Event Time Altitude Azimuth Distance (km) Brightness Sun altitude
Rises 11:10:55 0° 243° (WSW) 2,703 6.9 -35.1°
Reaches altitude 10° 11:13:19 10° 254° (WSW) 1,799 5.9 -35.5°
Enters shadow 11:13:40 12° 256° (WSW) 1,670 5.7 -35.6°
